Weather History for Big Delta, AK

Change the Weather History Date:

Sunday, May 25, 2014

  Actual Average Record
Temperature  
Mean Temperature 52 °F -  
Max Temperature 57 °F 58 °F 82 °F (2002)
Min Temperature 46 °F 38 °F -7 °F (1998)
Degree Days  
Heating Degree Days 14    
Growing Degree Days 2 (Base 50)    
Moisture  
Dew Point 37 °F    
Average Humidity 59    
Maximum Humidity 83    
Minimum Humidity 34    
Precipitation  
Precipitation 0.00 in - - ()
Sea Level Pressure  
Sea Level Pressure 29.91 in    
Wind  
Wind Speed 9 mph (West)    
Max Wind Speed 15 mph    
Max Gust Speed 18 mph    
Visibility 10 miles    
Events Rain    
Averages and records for this station are not official NWS values.
T = Trace of Precipitation, MM = Missing Value Source: NWS Daily Summary

Daily Weather History Graph

Daily Weather History Graph

Search for Another Location

Airport:

Trip Planner

Search our weather history database for the weather conditions in past years. The results will help you decide how hot, cold, wet, or windy it might be!

Date:

Astronomy

May. 25, 2014 Rise Set
Actual Time 3:58 AM AKDT 11:23 PM AKDT
Civil Twilight 2:12 AM AKDT 1:07 AM AKDT
Nautical Twilight Sun does not rise Sun does not rise
Astronomical Twilight Sun does not rise Sun does not rise
Moon 3:39 AM AKDT (5/25) 7:15 PM AKDT (5/25)
Length of Visible Light 22h 55m
Length of Day
19h 24m
Waning Crescent, 9% of the Moon is Illuminated
May 25
Waning Crescent
May 28
New
Jun 5
First Quarter
Jun 12
Full
Jun 19
Last Quarter

Hourly Weather History & Observations

Time (AKDT) Temp. Windchill Dew Point Humidity Pressure Visibility Wind Dir Wind Speed Gust Speed Precip Events Conditions
12:53 AM 54.0 °F - 28.9 °F 38% 29.87 in 10.0 mi WSW 10.4 mph - N/A   Overcast
1:53 AM 55.0 °F - 27.0 °F 34% 29.87 in 10.0 mi WSW 15.0 mph - N/A   Overcast
2:53 AM 54.0 °F - 32.0 °F 43% 29.87 in 10.0 mi SSW 9.2 mph - 0.00 in   Overcast
3:53 AM 52.0 °F - 34.0 °F 50% 29.89 in 10.0 mi SSW 9.2 mph - 0.00 in Rain Light Rain
4:53 AM 51.1 °F - 36.0 °F 56% 29.87 in 10.0 mi NW 4.6 mph - 0.00 in   Overcast
5:53 AM 50.0 °F - 39.0 °F 66% 29.86 in 10.0 mi SE 3.5 mph - N/A   Overcast
6:53 AM 50.0 °F - 37.9 °F 63% 29.86 in 10.0 mi NNE 4.6 mph - 0.00 in Rain Light Rain
7:53 AM 50.0 °F - 36.0 °F 59% 29.88 in 10.0 mi WSW 12.7 mph 18.4 mph 0.00 in Rain Light Rain
8:53 AM 46.9 °F - 41.0 °F 80% 29.90 in 10.0 mi NNW 10.4 mph - 0.00 in Rain Light Rain
9:53 AM 46.0 °F 39.9 °F 41.0 °F 83% 29.91 in 10.0 mi NNW 13.8 mph - 0.00 in Rain Light Rain
10:53 AM 46.9 °F - 39.0 °F 74% 29.92 in 10.0 mi NNW 8.1 mph - 0.00 in Rain Light Rain
11:53 AM 48.0 °F - 37.0 °F 66% 29.92 in 10.0 mi NW 11.5 mph - 0.00 in Rain Light Rain
12:53 PM 48.0 °F - 37.9 °F 68% 29.93 in 10.0 mi NNW 9.2 mph - 0.00 in Rain Light Rain
1:53 PM 50.0 °F - 35.1 °F 57% 29.93 in 10.0 mi NW 12.7 mph - 0.00 in Rain Light Rain
2:53 PM 48.9 °F - 36.0 °F 61% 29.94 in 10.0 mi WNW 9.2 mph - 0.00 in Rain Light Rain
3:53 PM 50.0 °F - 37.0 °F 61% 29.94 in 10.0 mi WSW 6.9 mph - 0.00 in   Overcast
4:53 PM 51.1 °F - 36.0 °F 56% 29.93 in 10.0 mi WSW 6.9 mph - 0.00 in Rain Light Rain
5:53 PM 52.0 °F - 37.0 °F 57% 29.92 in 10.0 mi South 10.4 mph - 0.00 in   Overcast
6:53 PM 52.0 °F - 37.9 °F 59% 29.92 in 10.0 mi SSE 5.8 mph - N/A   Mostly Cloudy
7:53 PM 52.0 °F - 36.0 °F 54% 29.92 in 10.0 mi South 5.8 mph - N/A   Mostly Cloudy
8:53 PM 52.0 °F - 37.0 °F 57% 29.92 in 10.0 mi West 4.6 mph - N/A   Mostly Cloudy
9:53 PM 51.1 °F - 37.9 °F 61% 29.93 in 10.0 mi SSW 3.5 mph - N/A   Mostly Cloudy
10:53 PM 50.0 °F - 39.0 °F 66% 29.94 in 10.0 mi NW 3.5 mph - N/A   Overcast
11:53 PM 48.0 °F - 39.0 °F 71% 29.96 in 10.0 mi WSW 3.5 mph - N/A   Mostly Cloudy